THOR ABLESTAR DEB, 127

Orbit data source: Space-Track

THOR ABLESTAR DEB, 127 is space debris in LEO originally from a launch on Thu, 29 Jun 1961 UTC launched from the Air Force Eastern Test Range (AFETR). Debris objects in space refer to the collection of defunct objects orbiting the Earth. Examples of debris include non-operational satellites, rocket bodies, and fragments generated from explosions, collisions, or faulty payload assembly.

Loading next visibility...
Identifier
127, 1961-015M
Orbit
LEO
Country
Flag of USUS
Related business
Manufacturer
Unknown
Mission
Spacecraft
Bus & Motor
Unknown
Mass
Unknown
Launch date (UTC)
1961-06-29 (65 years ago)
Launch vehicle
Unknown
Launch site
Air Force Eastern Test Range (AFETR)
Object type
Payload
Rocket body
Debris
Shape & HBR
Unknown shape, 0.5 m
Radar Cross Section
Medium (>0.1 m² and <1 m²)

Expand to show TLE details & history
Last TLE update: 11 hours ago

TLE from 11 hours ago
0 THOR ABLESTAR DEB
1   127U 61015M   26199.80133256  .00000610  00000-0  18207-3 0  9996
2   127  66.8259 220.6133 0065537 335.0304  24.7638 14.48641955371434
Epoch: 2026-07-18T19:13Z
TLE epoch observation values (Epoch: 2026-07-18T19:13:55.133Z)
Latitude
0.00002°
Longitude
-4.47528°
Altitude
689.971 km
Speed
7.534 km/s
True Right ascension
14h 42m 27s
True Declination
0° 00' 00"
Sunlit
Object was in daylight at epoch
Visualization orbit readout
Latitude
Unknown
Longitude
Unknown
Altitude
Unknown
Speed
Unknown
Apparent Right ascension
Unknown
Apparent Declination
Unknown
Sunlit
N/A
Visualization observer readout
Local Sidereal Time
18:44:31
Azimuth
Unknown
Elevation
Unknown
Doppler factor
Unknown
Orbital elements
Apogee altitude
775.008 km
Perigee altitude
681.859 km
Semi-major axis
7,106.57 km
Eccentricity
0.00655
Inclination
66.8259°
RAAN
220.6133°
Arg. of periapsis
335.0304°
True anomaly
25.08073°
Mean anomaly
24.7638°
Eccentric anomaly
24.92203°
Mean motion
3.62287 °/min
Orbital period
99.37 mins
BSTAR
0.00018207
Loading maneuver chart data...
Computing Atmospheric mass density...

Documentation

Showing up to 5 results
|